Location: Ústí nad Labem
(50.6611°N, 14.0531°E)
Time: 00:55:29
(UTC+02:00)

S-56A Canister/Altair - Pass Details

Date: 17 April 2024
Orbit: 638 x 2488 km, 38.9° (Epoch: 28 May)

Event Time Altitude Azimuth Distance (km) Brightness Sun altitude
Rises 01:14:44 0° 271° (W) 4,842 11.6 -28.7°
Reaches altitude 10° 01:18:54 10° 255° (WSW) 4,166 11.1 -28.7°
Enters shadow 01:21:16 15° 243° (WSW) 3,936 10.8 -28.6°
